GW6344 Weather Reports


time (UTC)temp
F
wind
direction
speed
knots
gust
knots
rain 1hr
in
rain 24hr
in
rain mn
in
humidity
%
barometer
mb
20260504204520 78 281 1.7 8.7 0.00 0.00 0.00 40 1015.2
20260504203016 78 22 1.7 7.0 0.00 0.00 0.00 40 1015.3
20260504201521 78 271 0.0 6.1 0.00 0.00 0.00 41 1015.5
20260504200015 78 139 0.9 9.6 0.00 0.00 0.00 43 1015.9
20260504194507 77 237 2.6 8.7 0.00 0.00 0.00 40 1016.2
20260504193007 78 243 0.9 8.7 0.00 0.00 0.00 44 1016.5
20260504191504 78 34 1.7 7.8 0.00 0.00 0.00 43 1016.6
20260504190024 78 233 1.7 7.8 0.00 0.00 0.00 42 1016.5
20260504184519 77 229 1.7 7.0 0.00 0.00 0.00 40 1016.6
20260504183022 78 257 4.3 10.4 0.00 0.00 0.00 41 1016.8
20260504181516 78 249 2.6 7.8 0.00 0.00 0.00 38 1016.8
20260504180013 78 246 2.6 8.7 0.00 0.00 0.00 44 1017.0
20260504174511 79 23 0.9 5.2 0.00 0.00 0.00 44 1017.3
20260504173015 78 146 0.9 3.5 0.00 0.00 0.00 43 1017.2
20260504171503 77 245 2.6 5.2 0.00 0.00 0.00 45 1017.2
20260504081527 52 190 0.0 0.0 0.00 0.00 0.00 92 1018.0
20260504050020 53 165 0.0 0.0 0.00 0.00 0.00 89 1019.1
20260504044530 53 193 0.0 0.0 0.00 0.00 0.00 89 1019.1
20260504043011 54 193 0.0 0.0 0.00 0.00 0.00 88 1019.2
20260504041525 54 188 0.0 0.0 0.00 0.00 0.00 88 1019.1
20260504040025 54 188 0.0 0.0 0.00 0.00 0.00 87 1019.1
20260504034533 55 188 0.0 0.0 0.00 0.00 0.00 87 1019.1
20260504033036 55 188 0.0 0.0 0.00 0.00 0.00 86 1019.1
20260504031523 56 188 0.0 0.0 0.00 0.00 0.00 85 1019.1
20260504030019 56 188 0.0 0.0 0.00 0.00 0.00 85 1019.1
20260504024520 57 188 0.0 0.0 0.00 0.00 0.00 84 1019.1
20260504023012 57 186 0.0 0.0 0.00 0.00 0.00 82 1018.9
20260504021533 58 235 0.0 0.0 0.00 0.00 0.00 83 1018.7
20260504020028 59 235 0.0 0.0 0.00 0.00 0.00 81 1018.6
20260504014525 59 234 0.0 0.0 0.00 0.00 0.00 81 1018.5
20260504013033 60 238 0.0 0.0 0.00 0.00 0.00 78 1018.4
20260504011524 61 238 0.0 0.0 0.00 0.00 0.00 76 1018.3
20260504010022 62 240 0.0 0.0 0.00 0.00 0.00 74 1018.1
20260504004516 63 248 0.0 0.0 0.00 0.00 0.00 71 1018.1
20260504003011 65 248 0.0 0.0 0.00 0.00 0.00 68 1018.0
20260504001527 67 247 0.0 0.0 0.00 0.00 0.00 62 1017.9
20260504000027 69 265 0.0 0.0 0.00 0.00 0.00 60 1017.8
20260503234528 71 265 0.0 0.0 0.00 0.00 0.00 54 1018.0
20260503233026 73 212 0.0 0.9 0.00 0.00 0.00 49 1017.9
20260503231526 74 160 0.0 0.9 0.00 0.00 0.00 45 1018.0
20260503230021 75 70 0.0 0.9 0.00 0.00 0.00 38 1017.9
20260503224519 77 62 0.9 3.5 0.00 0.00 0.00 42 1018.0
20260503223027 78 5 0.9 1.7 0.00 0.00 0.00 36 1018.1
20260503221532 78 30 0.0 2.6 0.00 0.00 0.00 37 1018.1
20260503220012 79 16 0.0 0.9 0.00 0.00 0.00 35 1018.3
20260503214509 77 30 0.0 4.3 0.00 0.00 0.00 35 1018.6
20260503213018 77 125 0.0 3.5 0.00 0.00 0.00 36 1018.8
20260503211507 77 161 0.0 2.6 0.00 0.00 0.00 38 1019.1
20260503210022 76 276 0.0 3.5 0.00 0.00 0.00 39 1019.1